owner,sensor,date,latitude,longitude,air_pressure(mBar),qcFlag 
DISL,ioos:station:DISL:DISL:1,2019-04-01T00:40:00Z,30.2513,-88.0778,1019.980668,1111122 
DISL,ioos:station:DISL:DISL:1,2019-04-01T01:40:00Z,30.2513,-88.0778,1020.996585,1111122 
DISL,ioos:station:DISL:DISL:1,2019-04-01T02:40:00Z,30.2513,-88.0778,1022.351141,1111122 
DISL,ioos:station:DISL:DISL:1,2019-04-01T03:40:00Z,30.2513,-88.0778,1022.012502,1111122 
DISL,ioos:station:DISL:DISL:1,2019-04-01T05:10:00Z,30.2513,-88.0778,1022.351141,1111122 
DISL,ioos:station:DISL:DISL:1,2019-04-01T05:40:00Z,30.2513,-88.0778,1022.68978,1111122 
DISL,ioos:station:DISL:DISL:1,2019-04-01T07:10:00Z,30.2513,-88.0778,1022.012502,1111122 
DISL,ioos:station:DISL:DISL:1,2019-04-01T07:40:00Z,30.2513,-88.0778,1020.996585,1111122 
DISL,ioos:station:DISL:DISL:1,2019-04-01T08:40:00Z,30.2513,-88.0778,1020.657946,1111122 
DISL,ioos:station:DISL:DISL:1,2019-04-01T09:40:00Z,30.2513,-88.0778,1020.319307,1111122 
DISL,ioos:station:DISL:DISL:1,2019-04-01T10:40:00Z,30.2513,-88.0778,1020.657946,1111122 
DISL,ioos:station:DISL:DISL:1,2019-04-01T12:10:00Z,30.2513,-88.0778,1021.335224,1111122 
DISL,ioos:station:DISL:DISL:1,2019-04-01T13:10:00Z,30.2513,-88.0778,1022.012502,1111122 
DISL,ioos:station:DISL:DISL:1,2019-04-01T14:10:00Z,30.2513,-88.0778,1022.012502,1111122 
DISL,ioos:station:DISL:DISL:1,2019-04-01T15:10:00Z,30.2513,-88.0778,1022.351141,1111122 
DISL,ioos:station:DISL:DISL:1,2019-04-01T16:10:00Z,30.2513,-88.0778,1022.351141,1111122 
DISL,ioos:station:DISL:DISL:1,2019-04-01T17:10:00Z,30.2513,-88.0778,1022.012502,1111122 
DISL,ioos:station:DISL:DISL:1,2019-04-01T18:10:00Z,30.2513,-88.0778,1021.673863,1111122 
DISL,ioos:station:DISL:DISL:1,2019-04-01T19:10:00Z,30.2513,-88.0778,1020.996585,1111122 
DISL,ioos:station:DISL:DISL:1,2019-04-01T20:10:00Z,30.2513,-88.0778,1020.319307,1111122 
DISL,ioos:station:DISL:DISL:1,2019-04-01T21:10:00Z,30.2513,-88.0778,1018.964751,1111122 
DISL,ioos:station:DISL:DISL:1,2019-04-01T22:10:00Z,30.2513,-88.0778,1019.30339,1111122 
DISL,ioos:station:DISL:DISL:1,2019-04-01T23:10:00Z,30.2513,-88.0778,1018.626112,1111122 
DISL,ioos:station:DISL:DISL:1,2019-04-01T23:40:00Z,30.2513,-88.0778,1018.626112,1111122 
DISL,ioos:station:DISL:DISL:1,2019-04-02T00:40:00Z,30.2513,-88.0778,1019.642029,1111122 
DISL,ioos:station:DISL:DISL:1,2019-04-02T01:40:00Z,30.2513,-88.0778,1019.30339,1111122 
DISL,ioos:station:DISL:DISL:1,2019-04-02T02:40:00Z,30.2513,-88.0778,1021.335224,1111122 
DISL,ioos:station:DISL:DISL:1,2019-04-02T03:40:00Z,30.2513,-88.0778,1020.657946,1111122 
DISL,ioos:station:DISL:DISL:1,2019-04-02T05:10:00Z,30.2513,-88.0778,1020.657946,1111122 
DISL,ioos:station:DISL:DISL:1,2019-04-02T06:10:00Z,30.2513,-88.0778,1019.980668,1111122 
DISL,ioos:station:DISL:DISL:1,2019-04-02T06:40:00Z,30.2513,-88.0778,1020.319307,1111122 
DISL,ioos:station:DISL:DISL:1,2019-04-02T07:40:00Z,30.2513,-88.0778,1020.319307,1111122 
DISL,ioos:station:DISL:DISL:1,2019-04-02T08:40:00Z,30.2513,-88.0778,1019.980668,1111122 
DISL,ioos:station:DISL:DISL:1,2019-04-02T09:40:00Z,30.2513,-88.0778,1019.642029,1111122 
DISL,ioos:station:DISL:DISL:1,2019-04-02T10:40:00Z,30.2513,-88.0778,1020.319307,1111122 
DISL,ioos:station:DISL:DISL:1,2019-04-02T12:10:00Z,30.2513,-88.0778,1021.335224,1111122 
DISL,ioos:station:DISL:DISL:1,2019-04-02T13:10:00Z,30.2513,-88.0778,1022.012502,1111122 
DISL,ioos:station:DISL:DISL:1,2019-04-02T14:10:00Z,30.2513,-88.0778,1022.012502,1111122 
DISL,ioos:station:DISL:DISL:1,2019-04-02T15:10:00Z,30.2513,-88.0778,1022.012502,1111122 
DISL,ioos:station:DISL:DISL:1,2019-04-02T16:10:00Z,30.2513,-88.0778,1022.351141,1111122 
DISL,ioos:station:DISL:DISL:1,2019-04-02T17:10:00Z,30.2513,-88.0778,1022.012502,1111122 
DISL,ioos:station:DISL:DISL:1,2019-04-02T18:10:00Z,30.2513,-88.0778,1022.012502,1111122 
DISL,ioos:station:DISL:DISL:1,2019-04-02T19:10:00Z,30.2513,-88.0778,1021.673863,1111122 
DISL,ioos:station:DISL:DISL:1,2019-04-02T20:10:00Z,30.2513,-88.0778,1020.996585,1111122 
DISL,ioos:station:DISL:DISL:1,2019-04-02T21:10:00Z,30.2513,-88.0778,1020.657946,1111122 
DISL,ioos:station:DISL:DISL:1,2019-04-02T22:10:00Z,30.2513,-88.0778,1019.980668,1111122 
DISL,ioos:station:DISL:DISL:1,2019-04-02T23:10:00Z,30.2513,-88.0778,1020.319307,1111122 
DISL,ioos:station:DISL:DISL:1,2019-04-02T23:40:00Z,30.2513,-88.0778,1020.996585,1111122 
DISL,ioos:station:DISL:DISL:1,2019-04-03T00:40:00Z,30.2513,-88.0778,1021.335224,1111122 
DISL,ioos:station:DISL:DISL:1,2019-04-03T01:40:00Z,30.2513,-88.0778,1022.012502,1111122 
DISL,ioos:station:DISL:DISL:1,2019-04-03T02:40:00Z,30.2513,-88.0778,1022.351141,1111122 
DISL,ioos:station:DISL:DISL:1,2019-04-03T03:40:00Z,30.2513,-88.0778,1023.028419,1111122 
DISL,ioos:station:DISL:DISL:1,2019-04-03T04:40:00Z,30.2513,-88.0778,1023.367058,1111122 
DISL,ioos:station:DISL:DISL:1,2019-04-03T05:40:00Z,30.2513,-88.0778,1023.367058,1111122 
DISL,ioos:station:DISL:DISL:1,2019-04-03T06:40:00Z,30.2513,-88.0778,1023.028419,1111122 
DISL,ioos:station:DISL:DISL:1,2019-04-03T07:40:00Z,30.2513,-88.0778,1022.351141,1111122 
DISL,ioos:station:DISL:DISL:1,2019-04-03T08:40:00Z,30.2513,-88.0778,1022.351141,1111122 
DISL,ioos:station:DISL:DISL:1,2019-04-03T09:40:00Z,30.2513,-88.0778,1023.367058,1111122 
DISL,ioos:station:DISL:DISL:1,2019-04-03T11:10:00Z,30.2513,-88.0778,1024.382975,1111122 
DISL,ioos:station:DISL:DISL:1,2019-04-03T11:40:00Z,30.2513,-88.0778,1024.721614,1111122 
DISL,ioos:station:DISL:DISL:1,2019-04-03T13:10:00Z,30.2513,-88.0778,1025.398892,1111122 
DISL,ioos:station:DISL:DISL:1,2019-04-03T14:10:00Z,30.2513,-88.0778,1025.737531,1111122 
DISL,ioos:station:DISL:DISL:1,2019-04-03T15:10:00Z,30.2513,-88.0778,1026.753448,1111122 
DISL,ioos:station:DISL:DISL:1,2019-04-03T16:10:00Z,30.2513,-88.0778,1027.430726,1111122 
DISL,ioos:station:DISL:DISL:1,2019-04-03T17:10:00Z,30.2513,-88.0778,1026.753448,1111122 
DISL,ioos:station:DISL:DISL:1,2019-04-03T18:10:00Z,30.2513,-88.0778,1026.414809,1111122 
DISL,ioos:station:DISL:DISL:1,2019-04-03T19:10:00Z,30.2513,-88.0778,1025.398892,1111122 
DISL,ioos:station:DISL:DISL:1,2019-04-03T20:10:00Z,30.2513,-88.0778,1024.721614,1111122 
DISL,ioos:station:DISL:DISL:1,2019-04-03T21:10:00Z,30.2513,-88.0778,1025.060253,1111122 
DISL,ioos:station:DISL:DISL:1,2019-04-03T22:10:00Z,30.2513,-88.0778,1023.705697,1111122 
DISL,ioos:station:DISL:DISL:1,2019-04-03T23:10:00Z,30.2513,-88.0778,1024.044336,1111122 
DISL,ioos:station:DISL:DISL:1,2019-04-03T23:40:00Z,30.2513,-88.0778,1024.382975,1111122 
DISL,ioos:station:DISL:DISL:1,2019-04-04T00:40:00Z,30.2513,-88.0778,1024.044336,1111122 
DISL,ioos:station:DISL:DISL:1,2019-04-04T01:40:00Z,30.2513,-88.0778,1024.382975,1111122 
DISL,ioos:station:DISL:DISL:1,2019-04-04T02:40:00Z,30.2513,-88.0778,1025.060253,1111122 
DISL,ioos:station:DISL:DISL:1,2019-04-04T03:40:00Z,30.2513,-88.0778,1025.060253,1111122 
DISL,ioos:station:DISL:DISL:1,2019-04-04T04:40:00Z,30.2513,-88.0778,1024.721614,1111122 
DISL,ioos:station:DISL:DISL:1,2019-04-04T05:40:00Z,30.2513,-88.0778,1024.382975,1111122 
DISL,ioos:station:DISL:DISL:1,2019-04-04T06:40:00Z,30.2513,-88.0778,1024.044336,1111122 
DISL,ioos:station:DISL:DISL:1,2019-04-04T07:40:00Z,30.2513,-88.0778,1023.367058,1111122 
DISL,ioos:station:DISL:DISL:1,2019-04-04T08:40:00Z,30.2513,-88.0778,1023.028419,1111122 
DISL,ioos:station:DISL:DISL:1,2019-04-04T09:40:00Z,30.2513,-88.0778,1022.351141,1111122 
DISL,ioos:station:DISL:DISL:1,2019-04-04T10:40:00Z,30.2513,-88.0778,1022.68978,1111122 
DISL,ioos:station:DISL:DISL:1,2019-04-04T11:40:00Z,30.2513,-88.0778,1022.012502,1111122 
DISL,ioos:station:DISL:DISL:1,2019-04-04T12:40:00Z,30.2513,-88.0778,1022.012502,1111122 
DISL,ioos:station:DISL:DISL:1,2019-04-04T14:10:00Z,30.2513,-88.0778,1020.657946,1111122 
DISL,ioos:station:DISL:DISL:1,2019-04-04T15:10:00Z,30.2513,-88.0778,1022.012502,1111122 
DISL,ioos:station:DISL:DISL:1,2019-04-04T15:40:00Z,30.2513,-88.0778,1025.398892,1111122 
DISL,ioos:station:DISL:DISL:1,2019-04-04T16:40:00Z,30.2513,-88.0778,1023.367058,1111122 
DISL,ioos:station:DISL:DISL:1,2019-04-04T18:10:00Z,30.2513,-88.0778,1023.028419,1111122 
DISL,ioos:station:DISL:DISL:1,2019-04-04T19:10:00Z,30.2513,-88.0778,1022.351141,1111122 
DISL,ioos:station:DISL:DISL:1,2019-04-04T20:10:00Z,30.2513,-88.0778,1020.657946,1111122 
DISL,ioos:station:DISL:DISL:1,2019-04-04T21:10:00Z,30.2513,-88.0778,1021.673863,1111122 
DISL,ioos:station:DISL:DISL:1,2019-04-04T21:40:00Z,30.2513,-88.0778,1021.335224,1111122 
DISL,ioos:station:DISL:DISL:1,2019-04-04T23:10:00Z,30.2513,-88.0778,1018.626112,1111122 
DISL,ioos:station:DISL:DISL:1,2019-04-04T23:40:00Z,30.2513,-88.0778,1017.948834,1111122 
DISL,ioos:station:DISL:DISL:1,2019-04-05T00:40:00Z,30.2513,-88.0778,1016.594278,1111122 
DISL,ioos:station:DISL:DISL:1,2019-04-05T01:40:00Z,30.2513,-88.0778,1017.271556,1111122 
DISL,ioos:station:DISL:DISL:1,2019-04-05T02:40:00Z,30.2513,-88.0778,1019.30339,1111122 
DISL,ioos:station:DISL:DISL:1,2019-04-05T03:40:00Z,30.2513,-88.0778,1018.626112,1111122 
DISL,ioos:station:DISL:DISL:1,2019-04-05T04:40:00Z,30.2513,-88.0778,1018.287473,1111122 
DISL,ioos:station:DISL:DISL:1,2019-04-05T05:40:00Z,30.2513,-88.0778,1018.287473,1111122 
DISL,ioos:station:DISL:DISL:1,2019-04-05T06:40:00Z,30.2513,-88.0778,1018.287473,1111122 
DISL,ioos:station:DISL:DISL:1,2019-04-05T07:40:00Z,30.2513,-88.0778,1017.610195,1111122 
DISL,ioos:station:DISL:DISL:1,2019-04-05T08:40:00Z,30.2513,-88.0778,1016.932917,1111122 
DISL,ioos:station:DISL:DISL:1,2019-04-05T09:40:00Z,30.2513,-88.0778,1016.594278,1111122 
DISL,ioos:station:DISL:DISL:1,2019-04-05T10:40:00Z,30.2513,-88.0778,1016.255639,1111122 
DISL,ioos:station:DISL:DISL:1,2019-04-05T11:40:00Z,30.2513,-88.0778,1017.271556,1111122 
DISL,ioos:station:DISL:DISL:1,2019-04-05T12:40:00Z,30.2513,-88.0778,1016.932917,1111122 
DISL,ioos:station:DISL:DISL:1,2019-04-05T14:10:00Z,30.2513,-88.0778,1016.932917,1111122 
DISL,ioos:station:DISL:DISL:1,2019-04-05T15:10:00Z,30.2513,-88.0778,1017.948834,1111122 
DISL,ioos:station:DISL:DISL:1,2019-04-05T15:40:00Z,30.2513,-88.0778,1018.287473,1111122 
DISL,ioos:station:DISL:DISL:1,2019-04-05T17:10:00Z,30.2513,-88.0778,1016.932917,1111122 
DISL,ioos:station:DISL:DISL:1,2019-04-05T18:10:00Z,30.2513,-88.0778,1017.271556,1111122 
DISL,ioos:station:DISL:DISL:1,2019-04-05T19:10:00Z,30.2513,-88.0778,1016.255639,1111122 
DISL,ioos:station:DISL:DISL:1,2019-04-05T20:10:00Z,30.2513,-88.0778,1016.255639,1111122 
DISL,ioos:station:DISL:DISL:1,2019-04-05T21:10:00Z,30.2513,-88.0778,1016.255639,1111122 
DISL,ioos:station:DISL:DISL:1,2019-04-05T22:10:00Z,30.2513,-88.0778,1015.917,1111122 
DISL,ioos:station:DISL:DISL:1,2019-04-05T23:10:00Z,30.2513,-88.0778,1016.255639,1111122 
DISL,ioos:station:DISL:DISL:1,2019-04-05T23:40:00Z,30.2513,-88.0778,1015.578361,1111122 
DISL,ioos:station:DISL:DISL:1,2019-04-06T00:40:00Z,30.2513,-88.0778,1016.932917,1111122 
DISL,ioos:station:DISL:DISL:1,2019-04-06T01:40:00Z,30.2513,-88.0778,1016.255639,1111122 
DISL,ioos:station:DISL:DISL:1,2019-04-06T02:40:00Z,30.2513,-88.0778,1017.948834,1111122 
DISL,ioos:station:DISL:DISL:1,2019-04-06T03:40:00Z,30.2513,-88.0778,1017.610195,1111122 
DISL,ioos:station:DISL:DISL:1,2019-04-06T04:40:00Z,30.2513,-88.0778,1017.610195,1111122 
DISL,ioos:station:DISL:DISL:1,2019-04-06T05:40:00Z,30.2513,-88.0778,1016.932917,1111122 
DISL,ioos:station:DISL:DISL:1,2019-04-06T06:40:00Z,30.2513,-88.0778,1016.932917,1111122 
DISL,ioos:station:DISL:DISL:1,2019-04-06T07:40:00Z,30.2513,-88.0778,1016.255639,1111122 
DISL,ioos:station:DISL:DISL:1,2019-04-06T08:40:00Z,30.2513,-88.0778,1016.255639,1111122 
DISL,ioos:station:DISL:DISL:1,2019-04-06T09:40:00Z,30.2513,-88.0778,1015.578361,1111122 
DISL,ioos:station:DISL:DISL:1,2019-04-06T10:40:00Z,30.2513,-88.0778,1016.932917,1111122 
DISL,ioos:station:DISL:DISL:1,2019-04-06T11:40:00Z,30.2513,-88.0778,1016.932917,1111122 
DISL,ioos:station:DISL:DISL:1,2019-04-06T12:40:00Z,30.2513,-88.0778,1018.287473,1111122 
DISL,ioos:station:DISL:DISL:1,2019-04-06T13:40:00Z,30.2513,-88.0778,1018.626112,1111122 
DISL,ioos:station:DISL:DISL:1,2019-04-06T14:40:00Z,30.2513,-88.0778,1019.642029,1111122 
DISL,ioos:station:DISL:DISL:1,2019-04-06T15:40:00Z,30.2513,-88.0778,1019.642029,1111122 
DISL,ioos:station:DISL:DISL:1,2019-04-06T16:40:00Z,30.2513,-88.0778,1019.980668,1111122 
DISL,ioos:station:DISL:DISL:1,2019-04-06T17:40:00Z,30.2513,-88.0778,1019.642029,1111122 
DISL,ioos:station:DISL:DISL:1,2019-04-06T19:10:00Z,30.2513,-88.0778,1018.287473,1111122 
DISL,ioos:station:DISL:DISL:1,2019-04-06T20:10:00Z,30.2513,-88.0778,1018.287473,1111122 
DISL,ioos:station:DISL:DISL:1,2019-04-06T20:40:00Z,30.2513,-88.0778,1017.948834,1111122 
DISL,ioos:station:DISL:DISL:1,2019-04-06T21:40:00Z,30.2513,-88.0778,1017.271556,1111122 
DISL,ioos:station:DISL:DISL:1,2019-04-06T23:10:00Z,30.2513,-88.0778,1016.594278,1111122 
DISL,ioos:station:DISL:DISL:1,2019-04-06T23:40:00Z,30.2513,-88.0778,1017.271556,1111122 
DISL,ioos:station:DISL:DISL:1,2019-04-07T00:40:00Z,30.2513,-88.0778,1017.610195,1111122 
DISL,ioos:station:DISL:DISL:1,2019-04-07T01:40:00Z,30.2513,-88.0778,1018.626112,1111122 
DISL,ioos:station:DISL:DISL:1,2019-04-07T02:40:00Z,30.2513,-88.0778,1018.964751,1111122 
DISL,ioos:station:DISL:DISL:1,2019-04-07T03:40:00Z,30.2513,-88.0778,1018.964751,1111122 
DISL,ioos:station:DISL:DISL:1,2019-04-07T04:40:00Z,30.2513,-88.0778,1018.964751,1111122 
DISL,ioos:station:DISL:DISL:1,2019-04-07T05:40:00Z,30.2513,-88.0778,1018.964751,1111122 
DISL,ioos:station:DISL:DISL:1,2019-04-07T06:40:00Z,30.2513,-88.0778,1018.626112,1111122 
DISL,ioos:station:DISL:DISL:1,2019-04-07T07:40:00Z,30.2513,-88.0778,1018.287473,1111122 
DISL,ioos:station:DISL:DISL:1,2019-04-07T08:40:00Z,30.2513,-88.0778,1018.626112,1111122 
DISL,ioos:station:DISL:DISL:1,2019-04-07T09:40:00Z,30.2513,-88.0778,1018.626112,1111122 
DISL,ioos:station:DISL:DISL:1,2019-04-07T11:10:00Z,30.2513,-88.0778,1019.642029,1111122 
DISL,ioos:station:DISL:DISL:1,2019-04-07T11:40:00Z,30.2513,-88.0778,1018.964751,1111122 
DISL,ioos:station:DISL:DISL:1,2019-04-07T12:40:00Z,30.2513,-88.0778,1019.642029,1111122 
DISL,ioos:station:DISL:DISL:1,2019-04-07T13:40:00Z,30.2513,-88.0778,1019.980668,1111122 
DISL,ioos:station:DISL:DISL:1,2019-04-07T14:40:00Z,30.2513,-88.0778,1019.980668,1111122 
DISL,ioos:station:DISL:DISL:1,2019-04-07T15:40:00Z,30.2513,-88.0778,1019.642029,1111122 
DISL,ioos:station:DISL:DISL:1,2019-04-07T16:40:00Z,30.2513,-88.0778,1018.964751,1111122 
DISL,ioos:station:DISL:DISL:1,2019-04-07T17:40:00Z,30.2513,-88.0778,1018.964751,1111122 
DISL,ioos:station:DISL:DISL:1,2019-04-07T18:40:00Z,30.2513,-88.0778,1017.948834,1111122 
DISL,ioos:station:DISL:DISL:1,2019-04-07T19:40:00Z,30.2513,-88.0778,1017.610195,1111122 
DISL,ioos:station:DISL:DISL:1,2019-04-07T20:40:00Z,30.2513,-88.0778,1016.594278,1111122 
DISL,ioos:station:DISL:DISL:1,2019-04-07T21:40:00Z,30.2513,-88.0778,1016.255639,1111122 
DISL,ioos:station:DISL:DISL:1,2019-04-07T22:40:00Z,30.2513,-88.0778,1015.917,1111122 
DISL,ioos:station:DISL:DISL:1,2019-04-07T23:40:00Z,30.2513,-88.0778,1016.594278,1111122 
DISL,ioos:station:DISL:DISL:1,2019-04-08T00:40:00Z,30.2513,-88.0778,1016.594278,1111122 
DISL,ioos:station:DISL:DISL:1,2019-04-08T01:40:00Z,30.2513,-88.0778,1016.255639,1111122 
DISL,ioos:station:DISL:DISL:1,2019-04-08T02:40:00Z,30.2513,-88.0778,1016.594278,1111122 
DISL,ioos:station:DISL:DISL:1,2019-04-08T03:40:00Z,30.2513,-88.0778,1016.932917,1111122 
DISL,ioos:station:DISL:DISL:1,2019-04-08T04:40:00Z,30.2513,-88.0778,1016.932917,1111122 
DISL,ioos:station:DISL:DISL:1,2019-04-08T05:40:00Z,30.2513,-88.0778,1017.271556,1111122 
DISL,ioos:station:DISL:DISL:1,2019-04-08T06:40:00Z,30.2513,-88.0778,1014.562444,1111122 
DISL,ioos:station:DISL:DISL:1,2019-04-08T07:40:00Z,30.2513,-88.0778,1013.546527,1111122 
DISL,ioos:station:DISL:DISL:1,2019-04-08T08:40:00Z,30.2513,-88.0778,1012.53061,1111122 
DISL,ioos:station:DISL:DISL:1,2019-04-08T09:40:00Z,30.2513,-88.0778,1012.869249,1111122 
DISL,ioos:station:DISL:DISL:1,2019-04-08T10:40:00Z,30.2513,-88.0778,1012.191971,1111122 
DISL,ioos:station:DISL:DISL:1,2019-04-08T11:40:00Z,30.2513,-88.0778,1011.514693,1111122 
DISL,ioos:station:DISL:DISL:1,2019-04-08T12:40:00Z,30.2513,-88.0778,1013.885166,1111122 
DISL,ioos:station:DISL:DISL:1,2019-04-08T13:40:00Z,30.2513,-88.0778,1013.546527,1111122 
DISL,ioos:station:DISL:DISL:1,2019-04-08T14:40:00Z,30.2513,-88.0778,1012.869249,1111122 
DISL,ioos:station:DISL:DISL:1,2019-04-08T15:40:00Z,30.2513,-88.0778,1012.869249,1111122 
DISL,ioos:station:DISL:DISL:1,2019-04-08T16:40:00Z,30.2513,-88.0778,1013.207888,1111122 
DISL,ioos:station:DISL:DISL:1,2019-04-08T18:10:00Z,30.2513,-88.0778,1013.207888,1111122 
DISL,ioos:station:DISL:DISL:1,2019-04-08T19:09:00Z,30.2513,-88.0778,1012.869249,1111122 
DISL,ioos:station:DISL:DISL:1,2019-04-08T20:09:00Z,30.2513,-88.0778,1011.176054,1111122 
DISL,ioos:station:DISL:DISL:1,2019-04-08T21:09:00Z,30.2513,-88.0778,1009.821498,1111122 
DISL,ioos:station:DISL:DISL:1,2019-04-08T22:09:00Z,30.2513,-88.0778,1009.821498,1111122 
DISL,ioos:station:DISL:DISL:1,2019-04-08T23:09:00Z,30.2513,-88.0778,1008.805581,1111122 
DISL,ioos:station:DISL:DISL:1,2019-04-08T23:40:00Z,30.2513,-88.0778,1008.805581,1111122 
DISL,ioos:station:DISL:DISL:1,2019-04-09T01:09:00Z,30.2513,-88.0778,1010.160137,1111122 
DISL,ioos:station:DISL:DISL:1,2019-04-09T01:40:00Z,30.2513,-88.0778,1010.160137,1111122 
DISL,ioos:station:DISL:DISL:1,2019-04-09T02:40:00Z,30.2513,-88.0778,1009.821498,1111122 
DISL,ioos:station:DISL:DISL:1,2019-04-09T03:40:00Z,30.2513,-88.0778,1009.482859,1111122 
DISL,ioos:station:DISL:DISL:1,2019-04-09T04:40:00Z,30.2513,-88.0778,1009.482859,1111122 
DISL,ioos:station:DISL:DISL:1,2019-04-09T05:40:00Z,30.2513,-88.0778,1009.482859,1111122 
DISL,ioos:station:DISL:DISL:1,2019-04-09T06:40:00Z,30.2513,-88.0778,1008.805581,1111122 
DISL,ioos:station:DISL:DISL:1,2019-04-09T07:40:00Z,30.2513,-88.0778,1008.128303,1111122 
DISL,ioos:station:DISL:DISL:1,2019-04-09T08:40:00Z,30.2513,-88.0778,1006.435108,1111122 
DISL,ioos:station:DISL:DISL:1,2019-04-09T09:40:00Z,30.2513,-88.0778,1006.435108,1111122 
DISL,ioos:station:DISL:DISL:1,2019-04-09T10:40:00Z,30.2513,-88.0778,1006.435108,1111122 
DISL,ioos:station:DISL:DISL:1,2019-04-09T11:40:00Z,30.2513,-88.0778,1007.451025,1111122 
DISL,ioos:station:DISL:DISL:1,2019-04-09T13:10:00Z,30.2513,-88.0778,1008.128303,1111122 
DISL,ioos:station:DISL:DISL:1,2019-04-09T14:10:00Z,30.2513,-88.0778,1008.466942,1111122 
DISL,ioos:station:DISL:DISL:1,2019-04-09T15:10:00Z,30.2513,-88.0778,1008.128303,1111122 
DISL,ioos:station:DISL:DISL:1,2019-04-09T16:10:00Z,30.2513,-88.0778,1008.805581,1111122 
DISL,ioos:station:DISL:DISL:1,2019-04-09T17:10:00Z,30.2513,-88.0778,1007.789664,1111122 
DISL,ioos:station:DISL:DISL:1,2019-04-09T18:10:00Z,30.2513,-88.0778,1007.451025,1111122 
DISL,ioos:station:DISL:DISL:1,2019-04-09T19:10:00Z,30.2513,-88.0778,1007.112386,1111122 
DISL,ioos:station:DISL:DISL:1,2019-04-09T20:10:00Z,30.2513,-88.0778,1006.096469,1111122 
DISL,ioos:station:DISL:DISL:1,2019-04-09T21:10:00Z,30.2513,-88.0778,1005.75783,1111122 
DISL,ioos:station:DISL:DISL:1,2019-04-09T22:10:00Z,30.2513,-88.0778,1005.75783,1111122 
DISL,ioos:station:DISL:DISL:1,2019-04-09T23:10:00Z,30.2513,-88.0778,1006.096469,1111122 
DISL,ioos:station:DISL:DISL:1,2019-04-09T23:40:00Z,30.2513,-88.0778,1006.773747,1111122 
DISL,ioos:station:DISL:DISL:1,2019-04-10T00:40:00Z,30.2513,-88.0778,1007.112386,1111122 
DISL,ioos:station:DISL:DISL:1,2019-04-10T01:40:00Z,30.2513,-88.0778,1007.789664,1111122 
DISL,ioos:station:DISL:DISL:1,2019-04-10T02:40:00Z,30.2513,-88.0778,1008.805581,1111122 
DISL,ioos:station:DISL:DISL:1,2019-04-10T03:40:00Z,30.2513,-88.0778,1009.14422,1111122 
DISL,ioos:station:DISL:DISL:1,2019-04-10T05:10:00Z,30.2513,-88.0778,1009.821498,1111122 
DISL,ioos:station:DISL:DISL:1,2019-04-10T06:10:00Z,30.2513,-88.0778,1009.482859,1111122 
DISL,ioos:station:DISL:DISL:1,2019-04-10T07:10:00Z,30.2513,-88.0778,1009.14422,1111122 
DISL,ioos:station:DISL:DISL:1,2019-04-10T08:10:00Z,30.2513,-88.0778,1008.466942,1111122 
DISL,ioos:station:DISL:DISL:1,2019-04-10T08:40:00Z,30.2513,-88.0778,1009.14422,1111122 
DISL,ioos:station:DISL:DISL:1,2019-04-10T09:40:00Z,30.2513,-88.0778,1008.466942,1111122 
DISL,ioos:station:DISL:DISL:1,2019-04-10T10:40:00Z,30.2513,-88.0778,1009.482859,1111122 
DISL,ioos:station:DISL:DISL:1,2019-04-10T12:09:00Z,30.2513,-88.0778,1009.821498,1111122 
DISL,ioos:station:DISL:DISL:1,2019-04-10T13:09:00Z,30.2513,-88.0778,1010.498776,1111122 
DISL,ioos:station:DISL:DISL:1,2019-04-10T14:09:00Z,30.2513,-88.0778,1011.514693,1111122 
DISL,ioos:station:DISL:DISL:1,2019-04-10T15:09:00Z,30.2513,-88.0778,1011.853332,1111122 
DISL,ioos:station:DISL:DISL:1,2019-04-10T16:09:00Z,30.2513,-88.0778,1011.853332,1111122 
DISL,ioos:station:DISL:DISL:1,2019-04-10T17:09:00Z,30.2513,-88.0778,1011.176054,1111122 
DISL,ioos:station:DISL:DISL:1,2019-04-10T18:09:00Z,30.2513,-88.0778,1010.498776,1111122 
DISL,ioos:station:DISL:DISL:1,2019-04-10T19:09:00Z,30.2513,-88.0778,1009.821498,1111122 
DISL,ioos:station:DISL:DISL:1,2019-04-10T20:09:00Z,30.2513,-88.0778,1009.482859,1111122 
DISL,ioos:station:DISL:DISL:1,2019-04-10T21:09:00Z,30.2513,-88.0778,1008.805581,1111122 
DISL,ioos:station:DISL:DISL:1,2019-04-10T22:09:00Z,30.2513,-88.0778,1008.805581,1111122 
DISL,ioos:station:DISL:DISL:1,2019-04-10T23:09:00Z,30.2513,-88.0778,1009.14422,1111122 
DISL,ioos:station:DISL:DISL:1,2019-04-10T23:39:00Z,30.2513,-88.0778,1008.466942,1111122 
DISL,ioos:station:DISL:DISL:1,2019-04-11T00:39:00Z,30.2513,-88.0778,1008.466942,1111122 
DISL,ioos:station:DISL:DISL:1,2019-04-11T01:40:00Z,30.2513,-88.0778,1009.482859,1111122 
DISL,ioos:station:DISL:DISL:1,2019-04-11T02:40:00Z,30.2513,-88.0778,1009.821498,1111122 
DISL,ioos:station:DISL:DISL:1,2019-04-11T04:10:00Z,30.2513,-88.0778,1009.482859,1111122 
DISL,ioos:station:DISL:DISL:1,2019-04-11T05:10:00Z,30.2513,-88.0778,1009.482859,1111122 
DISL,ioos:station:DISL:DISL:1,2019-04-11T06:10:00Z,30.2513,-88.0778,1008.805581,1111122 
DISL,ioos:station:DISL:DISL:1,2019-04-11T07:10:00Z,30.2513,-88.0778,1008.805581,1111122 
DISL,ioos:station:DISL:DISL:1,2019-04-11T08:10:00Z,30.2513,-88.0778,1008.805581,1111122 
DISL,ioos:station:DISL:DISL:1,2019-04-11T09:10:00Z,30.2513,-88.0778,1008.805581,1111122 
DISL,ioos:station:DISL:DISL:1,2019-04-11T10:10:00Z,30.2513,-88.0778,1009.482859,1111122 
DISL,ioos:station:DISL:DISL:1,2019-04-11T11:10:00Z,30.2513,-88.0778,1009.14422,1111122 
DISL,ioos:station:DISL:DISL:1,2019-04-11T12:10:00Z,30.2513,-88.0778,1009.821498,1111122 
DISL,ioos:station:DISL:DISL:1,2019-04-11T13:10:00Z,30.2513,-88.0778,1010.160137,1111122 
DISL,ioos:station:DISL:DISL:1,2019-04-11T14:10:00Z,30.2513,-88.0778,1010.160137,1111122 
DISL,ioos:station:DISL:DISL:1,2019-04-11T15:10:00Z,30.2513,-88.0778,1010.498776,1111122 
DISL,ioos:station:DISL:DISL:1,2019-04-11T16:10:00Z,30.2513,-88.0778,1010.498776,1111122 
DISL,ioos:station:DISL:DISL:1,2019-04-11T17:10:00Z,30.2513,-88.0778,1011.176054,1111122 
DISL,ioos:station:DISL:DISL:1,2019-04-11T18:10:00Z,30.2513,-88.0778,1011.514693,1111122 
DISL,ioos:station:DISL:DISL:1,2019-04-11T19:10:00Z,30.2513,-88.0778,1010.837415,1111122 
DISL,ioos:station:DISL:DISL:1,2019-04-11T20:10:00Z,30.2513,-88.0778,1010.837415,1111122 
DISL,ioos:station:DISL:DISL:1,2019-04-11T21:10:00Z,30.2513,-88.0778,1010.498776,1111122 
DISL,ioos:station:DISL:DISL:1,2019-04-11T22:10:00Z,30.2513,-88.0778,1010.837415,1111122 
DISL,ioos:station:DISL:DISL:1,2019-04-11T23:10:00Z,30.2513,-88.0778,1010.498776,1111122 
DISL,ioos:station:DISL:DISL:1,2019-04-11T23:40:00Z,30.2513,-88.0778,1010.837415,1111122 
DISL,ioos:station:DISL:DISL:1,2019-04-12T00:40:00Z,30.2513,-88.0778,1010.498776,1111122 
DISL,ioos:station:DISL:DISL:1,2019-04-12T01:40:00Z,30.2513,-88.0778,1010.837415,1111122 
DISL,ioos:station:DISL:DISL:1,2019-04-12T02:40:00Z,30.2513,-88.0778,1011.176054,1111122 
DISL,ioos:station:DISL:DISL:1,2019-04-12T03:40:00Z,30.2513,-88.0778,1011.514693,1111122 
DISL,ioos:station:DISL:DISL:1,2019-04-12T05:10:00Z,30.2513,-88.0778,1011.176054,1111122 